Change the Weather History Date:

Thursday, January 9, 2014

  Actual Average Record
Temperature  
Mean Temperature 36 °F -  
Max Temperature 41 °F 44 °F 60 °F (2002)
Min Temperature 30 °F 27 °F 11 °F (2011)
Degree Days  
Heating Degree Days 30    
Moisture  
Dew Point 29 °F    
Average Humidity 77    
Maximum Humidity 93    
Minimum Humidity 36    
Precipitation  
Precipitation 0.05 in - - ()
Sea Level Pressure  
Sea Level Pressure 30.34 in    
Wind  
Wind Speed 7 mph (SE)    
Max Wind Speed 10 mph    
Max Gust Speed -    
Visibility 10 miles    
Events Rain    
Averages and records for this station are not official NWS values.
T = Trace of Precipitation, MM = Missing Value Source: NWS Daily Summary

Daily Weather History Graph

Daily Weather History Graph

Search for Another Location

Airport or City:

Trip Planner

Search our weather history database for the weather conditions in past years. The results will help you decide how hot, cold, wet, or windy it might be!

Date:

Astronomy

Jan. 09, 2014 Rise Set
Actual Time 7:02 AM CST 4:51 PM CST
Civil Twilight 6:34 AM CST 5:20 PM CST
Nautical Twilight 6:02 AM CST 5:52 PM CST
Astronomical Twilight 5:30 AM CST 6:23 PM CST
Moon 12:15 PM CST (1/9) 1:13 AM CST (1/9)
Length of Visible Light 10h 46m
Length of Day
9h 49m
Waxing Gibbous, 66% of the Moon is Illuminated
Jan 9
Waxing Gibbous
Jan 15
Full
Jan 23
Last Quarter
Jan 30
New
Feb 6
First Quarter

Hourly Weather History & Observations

Time (CST) Temp. Windchill Dew Point Humidity Pressure Visibility Wind Dir Wind Speed Gust Speed Precip Events Conditions
12:58 AM 32.0 °F 25.6 °F 23.0 °F 69% 30.44 in 10.0 mi North 6.9 mph - N/A   Overcast
1:58 AM 31.1 °F 25.4 °F 24.4 °F 76% 30.45 in 10.0 mi NE 5.8 mph - N/A   Overcast
2:58 AM 30.6 °F - 23.5 °F 75% 30.46 in 10.0 mi East 1.2 mph - N/A   Overcast
3:58 AM 30.9 °F 24.3 °F 23.0 °F 72% 30.45 in 10.0 mi East 6.9 mph - N/A   Overcast
4:58 AM 31.5 °F 25.8 °F 23.9 °F 74% 30.45 in 10.0 mi ESE 5.8 mph - N/A   Overcast
5:58 AM 32.0 °F 27.5 °F 24.1 °F 73% 30.44 in 10.0 mi ESE 4.6 mph - N/A   Overcast
6:58 AM 32.5 °F 28.1 °F 23.0 °F 68% 30.43 in 10.0 mi ESE 4.6 mph - N/A   Overcast
7:58 AM 33.6 °F 27.5 °F 21.0 °F 60% 30.45 in 10.0 mi SSE 6.9 mph - N/A   Overcast
8:58 AM 36.1 °F 29.9 °F 19.0 °F 50% 30.44 in 10.0 mi SSE 8.1 mph - N/A   Overcast
9:58 AM 38.8 °F 33.2 °F 17.2 °F 42% 30.43 in 10.0 mi SSE 8.1 mph - N/A   Overcast
10:58 AM 39.9 °F 36.7 °F 17.4 °F 40% 30.42 in 10.0 mi South 4.6 mph - N/A   Overcast
11:38 AM 41.0 °F 38.0 °F 15.8 °F 36% 30.38 in 10.0 mi South 4.6 mph - N/A   Light Drizzle
11:58 AM 39.0 °F 34.8 °F 22.3 °F 51% 30.40 in 10.0 mi Variable 5.8 mph - 0.00 in Rain Light Rain
12:58 PM 36.0 °F 31.1 °F 28.6 °F 75% 30.36 in 10.0 mi South 5.8 mph - 0.01 in Rain Light Rain
1:58 PM 34.7 °F 27.5 °F 32.7 °F 92% 30.34 in 10.0 mi SSE 9.2 mph - 0.03 in   Light Drizzle
2:30 PM 35.6 °F 28.6 °F 32.0 °F 87% 30.31 in 10.0 mi SSE 9.2 mph - N/A   Light Drizzle
2:52 PM 35.6 °F 28.0 °F 32.0 °F 87% 30.30 in 10.0 mi SSE 10.4 mph - N/A   Mostly Cloudy
2:54 PM 35.6 °F 28.6 °F 32.0 °F 87% 30.30 in 10.0 mi SSE 9.2 mph - N/A   Light Drizzle
2:58 PM 34.7 °F 28.1 °F 31.6 °F 89% 30.32 in 10.0 mi SSE 8.1 mph - 0.01 in   Light Drizzle
3:11 PM 35.6 °F 28.0 °F 32.0 °F 87% 30.30 in 10.0 mi SSE 10.4 mph - N/A   Overcast
3:16 PM 35.6 °F 29.2 °F 32.0 °F 87% 30.30 in 10.0 mi SE 8.1 mph - N/A   Light Drizzle
3:27 PM 35.6 °F 28.0 °F 32.0 °F 87% 30.28 in 10.0 mi ESE 10.4 mph - N/A   Overcast
3:58 PM 35.4 °F 29.7 °F 31.8 °F 87% 30.32 in 10.0 mi SSE 6.9 mph - 0.00 in   Overcast
5:58 PM 35.4 °F 29.0 °F 33.1 °F 91% 30.29 in 10.0 mi SE 8.1 mph - N/A   Overcast
6:42 PM 35.6 °F 29.9 °F 32.0 °F 87% 30.28 in 10.0 mi SE 6.9 mph - N/A   Light Drizzle
6:58 PM 35.8 °F 30.9 °F 33.4 °F 91% 30.29 in 10.0 mi ESE 5.8 mph - 0.00 in   Light Drizzle
6:59 PM 35.6 °F 30.7 °F 32.0 °F 87% 30.27 in 10.0 mi SE 5.8 mph - N/A   Overcast
7:58 PM 36.5 °F 30.3 °F 33.3 °F 88% 30.28 in 10.0 mi SE 8.1 mph - 0.00 in   Overcast
8:58 PM 37.4 °F 32.8 °F 34.5 °F 89% 30.27 in 10.0 mi SE 5.8 mph - N/A   Overcast
9:58 PM 39.6 °F 34.0 °F 36.0 °F 87% 30.25 in 10.0 mi SSE 8.1 mph - N/A   Overcast
10:02 PM 39.2 °F 33.0 °F 35.6 °F 87% 30.23 in 10.0 mi SSE 9.2 mph - N/A   Overcast
10:18 PM 39.2 °F 32.5 °F 37.4 °F 93% 30.22 in 10.0 mi SSE 10.4 mph - N/A   Overcast
10:58 PM 40.1 °F 34.1 °F 37.2 °F 89% 30.24 in 10.0 mi SSE 9.2 mph - N/A   Overcast
11:58 PM 41.4 °F 38.4 °F 38.3 °F 89% 30.24 in 10.0 mi South 4.6 mph - N/A   Overcast